Cloud_Cover
0 0 0 14 29 5 1 0 0 5 5 2 1 31 100 100 100 100 100 100 100 89 8 73 100 100 100 100 39 5 41 7 4 5 1 0 0 5 5 7 9 54 81 51 84 72 83 31 12 96 81 64 95 100
0 0 0 15 28 5 1 0 0 4 5 5 4 94 98 100 100 100 100 100 100 73 89 39 17 58 100 100 88 21 13 5 5 5 0 0 0 3 5 6 4 66 99 79 53 91 87 90 95 67 100 100 100 100
0 0 0 47 69 7 0 0 0 0 5 5 5 81 100 100 100 100 100 100 100 86 5 5 5 36 5 14 5 92 27 5 8 5 5 2 4 5 5 5 39 47 41 93 39 98 100 98 96 100 90 98 99 93
0 0 2 96 66 11 1 0 0 0 4 5 5 65 100 100 100 100 100 100 100 76 89 31 13 32 5 5 46 57 11 6 80 18 5 4 2 1 4 4 4 32 45 38 60 94 93 93 20 32 88 90 39 5
7 0 45 100 78 61 0 0 0 1 5 5 5 35 100 100 100 100 100 100 100 95 92 14 65 15 50 8 85 92 74 47 68 5 5 5 3 2 2 2 92 8 21 57 91 84 100 24 49 100 100 69 31 79
4 4 65 99 99 14 0 0 0 2 5 5 5 86 100 100 100 100 100 100 97 15 14 13 64 41 6 91 100 100 77 81 96 5 5 4 5 4 4 8 6 3 14 45 100 99 24 32 12 42 77 84 39 38
50 66 100 93 88 5 3 0 0 5 5 5 5 99 100 100 100 100 100 94 85 48 33 83 80 9 25 100 100 77 48 100 40 10 12 5 5 3 5 12 6 5 73 96 41 4 30 87 45 92 47 97 44 64
25 100 100 96 41 5 0 0 5 5 5 5 6 100 100 100 100 100 100 100 100 100 35 100 72 6 82 100 99 43 89 100 5 38 5 5 2 8 22 6 5 11 50 35 74 100 99 100 74 42 78 67 50 11
86 100 100 94 5 5 0 0 5 5 5 5 74 100 100 100 100 100 100 100 100 93 34 73 17 91 100 100 66 73 100 76 24 28 36 4 5 6 12 5 5 7 77 87 97 75 20 12 79 74 81 38 61 12
100 100 100 81 5 0 0 4 5 5 9 6 100 100 100 100 100 100 100 100 100 100 100 88 63 100 94 91 100 100 99 43 46 16 18 4 5 0 5 6 3 20 99 99 44 50 43 26 14 10 5 53 7 94
100 100 79 5 1 0 1 5 5 13 7 100 100 100 100 100 100 100 100 100 100 53 65 43 68 100 97 92 84 62 28 84 47 45 5 4 5 2 5 6 26 58 96 100 100 97 98 5 5 5 5 73 100 100
100 72 5 5 0 5 4 5 5 24 100 100 100 100 100 100 100 100 100 100 100 97 97 39 84 100 100 94 100 100 100 41 49 10 4 4 4 1 3 20 100 73 100 48 25 37 17 5 5 5 82 100 100 100
5 5 5 0 2 5 5 5 23 100 100 100 100 100 100 100 100 100 95 21 66 99 75 83 99 100 100 100 95 81 54 29 47 5 5 2 1 2 14 63 76 100 59 22 48 41 5 5 5 5 84 91 19 0
5 0 0 0 0 0 0 40 100 100 100 100 100 100 100 83 66 6 23 100 100 100 100 100 100 100 100 100 100 55 100 66 5 5 3 0 0 6 39 44 98 63 25 7 5 4 3 4 0 0 0 0 0 0
1 3 1 0 4 1 71 100 100 100 100 100 100 100 98 42 71 55 100 100 100 100 100 100 100 100 100 100 100 98 97 63 6 5 0 0 0 20 40 63 39 20 0 3 0 0 0 0 0 0 0 0 0 0
0 2 5 4 0 93 100 100 100 100 100 100 100 100 100 86 99 100 100 100 100 100 100 91 94 100 100 100 100 100 86 57 6 4 0 0 4 48 41 19 8 0 0 0 0 0 0 0 0 0 0 0 0 0
2 26 2 2 97 100 100 100 100 100 100 100 100 97 98 100 100 100 100 100 100 100 100 100 88 100 100 100 100 100 100 39 5 2 0 0 3 17 4 0 0 0 0 2 2 0 0 0 0 0 0 0 0 0
6 4 5 100 100 100 100 100 100 100 100 99 98 100 100 100 100 100 100 100 100 100 100 100 100 100 100 100 96 53 79 8 5 0 0 22 20 0 0 0 0 0 0 3 0 0 0 0 0 0 0 0 0 0
5 59 100 100 100 100 97 100 100 100 100 100 100 100 100 100 100 100 100 100 100 100 100 100 100 100 100 99 49 100 47 5 5 3 12 18 0 0 0 0 0 0 3 5 0 0 0 0 0 0 0 0 0 0
36 99 100 100 100 100 100 100 100 100 100 100 100 100 100 100 100 100 100 100 100 100 100 100 100 100 100 100 100 25 5 5 5 6 6 0 1 3 5 1 4 5 5 0 0 0 0 0 0 0 0 0 0 0
95 100 100 100 100 100 100 100 100 100 100 100 100 100 100 100 100 100 100 100 100 100 100 100 100 100 100 100 9 5 5 6 7 5 5 5 5 5 5 5 5 5 5 0 0 0 0 0 0 0 0 0 0 0
100 100 100 100 100 100 100 100 100 100 100 100 100 100 100 100 100 99 100 100 100 100 100 100 100 100 100 27 5 5 5 5 5 5 5 5 5 5 5 5 5 3 5 1 0 0 0 0 0 0 0 0 0 0
100 100 100 100 100 100 100 100 100 100 100 100 100 100 100 100 100 96 100 100 100 99 100 100 100 100 92 77 5 5 5 5 5 5 5 5 5 5 5 5 5 2 5 1 0 0 0 0 0 0 0 0 0 0
100 100 100 100 100 100 100 100 100 100 100 100 100 100 100 99 56 100 100 99 51 100 100 100 100 100 100 52 5 5 6 5 5 5 11 5 5 5 5 5 5 5 11 1 2 1 0 0 0 0 0 82 100 86
100 100 100 100 100 100 100 100 100 100 100 100 100 100 98 22 100 100 93 69 95 100 100 100 100 100 82 29 9 24 35 42 21 5 41 5 5 5 5 5 5 5 5 5 2 5 0 0 0 0 16 100 9 0
100 100 100 100 100 100 100 100 100 100 100 100 94 99 24 98 100 100 64 100 100 100 100 100 100 100 97 23 5 11 62 38 5 10 30 5 9 5 5 7 8 5 5 5 5 5 0 0 71 0 0 12 1 63
100 100 100 100 100 100 100 100 100 100 100 100 100 74 96 100 100 100 100 100 100 100 100 100 100 89 53 22 23 63 53 37 8 5 20 24 7 5 15 68 63 9 5 5 5 3 7 0 2 0 11 7 35 92
100 100 100 100 100 100 100 100 100 100 100 100 100 100 94 100 100 99 100 100 100 100 100 100 100 94 93 19 5 51 26 5 5 5 8 6 5 5 5 48 59 38 5 5 5 2 0 0 0 9 96 66 100 100
100 100 100 100 100 100 100 100 100 100 100 70 61 52 100 100 100 100 100 100 100 100 100 100 99 41 41 29 12 12 8 33 18 5 5 5 5 5 9 58 75 84 6 5 34 3 0 0 17 93 100 100 100 100
100 100 100 100 100 100 100 100 100 100 100 100 100 100 100 100 100 100 100 100 100 100 100 68 89 51 42 50 32 51 64 30 5 10 5 5 5 6 41 85 81 85 9 80 4 7 90 85 100 100 100 100 100 100
100 100 100 100 100 100 100 100 100 100 100 100 100 100 100 100 100 100 100 100 100 100 100 100 100 100 85 14 46 73 86 86 11 5 5 5 7 70 85 69 72 89 48 10 36 17 55 100 100 100 100 100 100 100
100 100 100 100 100 100 100 100 100 100 100 100 100 100 99 100 100 100 59 100 100 100 100 100 100 75 52 68 61 52 10 6 45 7 5 7 65 54 29 92 100 95 100 100 94 69 97 100 100 100 100 100 100 100
100 100 100 100 100 100 100 100 100 100 100 100 100 100 100 100 100 68 53 97 100 100 59 100 100 100 87 97 100 75 38 72 59 5 5 5 33 63 76 100 92 100 98 95 100 99 93 99 66 100 100 100 100 100